Year,Month,Day,Hour,Minute,Value (Times are PST for temperature in C)
2017,05,25,00,00,11.90
2017,05,25,00,01,11.80
2017,05,25,00,02,11.80
2017,05,25,00,03,11.70
2017,05,25,00,04,11.70
2017,05,25,00,05,11.60
2017,05,25,00,06,11.50
2017,05,25,00,07,11.50
2017,05,25,00,08,11.40
2017,05,25,00,09,11.40
2017,05,25,00,10,11.30
2017,05,25,00,11,11.30
2017,05,25,00,12,11.30
2017,05,25,00,13,11.20
2017,05,25,00,14,11.10
2017,05,25,00,15,11.10
2017,05,25,00,16,11.00
2017,05,25,00,17,11.00
2017,05,25,00,18,10.90
2017,05,25,00,19,10.90
2017,05,25,00,20,10.90
2017,05,25,00,21,10.80
2017,05,25,00,22,10.80
2017,05,25,00,23,10.80
2017,05,25,00,24,10.80
2017,05,25,00,25,10.80
2017,05,25,00,26,10.80
2017,05,25,00,27,10.80
2017,05,25,00,28,10.80
2017,05,25,00,29,10.80
2017,05,25,00,30,10.80
2017,05,25,00,31,10.80
2017,05,25,00,32,10.80
2017,05,25,00,33,10.80
2017,05,25,00,34,10.80
2017,05,25,00,35,10.80
2017,05,25,00,36,10.80
2017,05,25,00,37,10.80
2017,05,25,00,38,10.80
2017,05,25,00,39,10.80
2017,05,25,00,40,10.80
2017,05,25,00,41,10.80
2017,05,25,00,42,10.80
2017,05,25,00,43,10.80
2017,05,25,00,44,10.90
2017,05,25,00,45,10.90
2017,05,25,00,46,10.90
2017,05,25,00,47,11.00
2017,05,25,00,48,11.00
2017,05,25,00,49,11.10
2017,05,25,00,50,11.10
2017,05,25,00,51,11.10
2017,05,25,00,52,11.10
2017,05,25,00,53,11.10
2017,05,25,00,54,11.10
2017,05,25,00,55,11.20
2017,05,25,00,56,11.20
2017,05,25,00,57,11.20
2017,05,25,00,58,11.20
2017,05,25,00,59,11.20
2017,05,25,01,00,11.20
2017,05,25,01,01,11.20
2017,05,25,01,02,11.20
2017,05,25,01,03,11.20
2017,05,25,01,04,11.20
2017,05,25,01,05,11.20
2017,05,25,01,06,11.20
2017,05,25,01,07,11.20
2017,05,25,01,08,11.20
2017,05,25,01,09,11.20
2017,05,25,01,10,11.20
2017,05,25,01,11,11.20
2017,05,25,01,12,11.20
2017,05,25,01,13,11.20
2017,05,25,01,14,11.30
2017,05,25,01,15,11.20
2017,05,25,01,16,11.20
2017,05,25,01,17,11.20
2017,05,25,01,18,11.20
2017,05,25,01,19,11.20
2017,05,25,01,20,11.20
2017,05,25,01,21,11.20
2017,05,25,01,22,11.20
2017,05,25,01,23,11.20
2017,05,25,01,24,11.30
2017,05,25,01,25,11.30
2017,05,25,01,26,11.30
2017,05,25,01,27,11.30
2017,05,25,01,28,11.30
2017,05,25,01,29,11.30
2017,05,25,01,30,11.30
2017,05,25,01,31,11.30
2017,05,25,01,32,11.30
2017,05,25,01,33,11.30
2017,05,25,01,34,11.20
2017,05,25,01,35,11.20
2017,05,25,01,36,11.20
2017,05,25,01,37,11.20
2017,05,25,01,38,11.20
2017,05,25,01,39,11.20
2017,05,25,01,40,11.20
2017,05,25,01,41,11.20
2017,05,25,01,42,11.20
2017,05,25,01,43,11.20
2017,05,25,01,44,11.20
2017,05,25,01,45,11.20
2017,05,25,01,46,11.20
2017,05,25,01,47,11.20
2017,05,25,01,48,11.20
2017,05,25,01,49,11.20
2017,05,25,01,50,11.20
2017,05,25,01,51,11.20
2017,05,25,01,52,11.20
2017,05,25,01,53,11.20
2017,05,25,01,54,11.20
2017,05,25,01,55,11.20
2017,05,25,01,56,11.20
2017,05,25,01,57,11.20
2017,05,25,01,58,11.20
2017,05,25,01,59,11.20
2017,05,25,02,00,11.20
2017,05,25,02,01,11.20
2017,05,25,02,02,11.20
2017,05,25,02,03,11.20
2017,05,25,02,04,11.20
2017,05,25,02,05,11.20
2017,05,25,02,06,11.20
2017,05,25,02,07,11.20
2017,05,25,02,08,11.20
2017,05,25,02,09,11.20
2017,05,25,02,10,11.20
2017,05,25,02,11,11.20
2017,05,25,02,12,11.20
2017,05,25,02,13,11.20
2017,05,25,02,14,11.20
2017,05,25,02,15,11.20
2017,05,25,02,16,11.10
2017,05,25,02,17,11.10
2017,05,25,02,18,11.10
2017,05,25,02,19,11.10
2017,05,25,02,20,11.10
2017,05,25,02,21,11.10
2017,05,25,02,22,11.10
2017,05,25,02,23,11.10
2017,05,25,02,24,11.10
2017,05,25,02,25,11.00
2017,05,25,02,26,11.00
2017,05,25,02,27,11.00
2017,05,25,02,28,11.00
2017,05,25,02,29,11.00
2017,05,25,02,30,10.90
2017,05,25,02,31,10.90
2017,05,25,02,32,10.90
2017,05,25,02,33,10.90
2017,05,25,02,34,10.80
2017,05,25,02,35,10.80
2017,05,25,02,36,10.80
2017,05,25,02,37,10.80
2017,05,25,02,38,10.70
2017,05,25,02,39,10.70
2017,05,25,02,40,10.70
2017,05,25,02,41,10.70
2017,05,25,02,42,10.70
2017,05,25,02,43,10.70
2017,05,25,02,44,10.60
2017,05,25,02,45,10.60
2017,05,25,02,46,10.60
2017,05,25,02,47,10.60
2017,05,25,02,48,10.60
2017,05,25,02,49,10.60
2017,05,25,02,50,10.60
2017,05,25,02,51,10.60
2017,05,25,02,52,10.50
2017,05,25,02,53,10.60
2017,05,25,02,54,10.60
2017,05,25,02,55,10.60
2017,05,25,02,56,10.60
2017,05,25,02,57,10.60
2017,05,25,02,58,10.60
2017,05,25,02,59,10.60
2017,05,25,03,00,10.70
2017,05,25,03,01,10.70
2017,05,25,03,02,10.70
2017,05,25,03,03,10.70
2017,05,25,03,04,10.70
2017,05,25,03,05,10.80
2017,05,25,03,06,10.80
2017,05,25,03,07,10.80
2017,05,25,03,08,10.80
2017,05,25,03,09,10.80
2017,05,25,03,10,10.80
2017,05,25,03,11,10.80
2017,05,25,03,12,10.80
2017,05,25,03,13,10.80
2017,05,25,03,14,10.80
2017,05,25,03,15,10.80
2017,05,25,03,16,10.80
2017,05,25,03,17,10.80
2017,05,25,03,18,10.80
2017,05,25,03,19,10.80
2017,05,25,03,20,10.80
2017,05,25,03,21,10.80
2017,05,25,03,22,10.80
2017,05,25,03,23,10.80
2017,05,25,03,24,10.80
2017,05,25,03,25,10.80
2017,05,25,03,26,10.80
2017,05,25,03,27,10.80
2017,05,25,03,28,10.80
2017,05,25,03,29,10.80
2017,05,25,03,30,10.80
2017,05,25,03,31,10.80
2017,05,25,03,32,10.80
2017,05,25,03,33,10.80
2017,05,25,03,34,10.80
2017,05,25,03,35,10.70
2017,05,25,03,36,10.70
2017,05,25,03,37,10.70
2017,05,25,03,38,10.70
2017,05,25,03,39,10.70
2017,05,25,03,40,10.70
2017,05,25,03,41,10.70
2017,05,25,03,42,10.70
2017,05,25,03,43,10.70
2017,05,25,03,44,10.70
2017,05,25,03,45,10.70
2017,05,25,03,46,10.70
2017,05,25,03,47,10.70
2017,05,25,03,48,10.70
2017,05,25,03,49,10.70
2017,05,25,03,50,10.70
2017,05,25,03,51,10.70
2017,05,25,03,52,10.70
2017,05,25,03,53,10.70
2017,05,25,03,54,10.70
2017,05,25,03,55,10.70
2017,05,25,03,56,10.60
2017,05,25,03,57,10.60
2017,05,25,03,58,10.60
2017,05,25,03,59,10.60
2017,05,25,04,00,10.60
2017,05,25,04,01,10.60
2017,05,25,04,02,10.50
2017,05,25,04,03,10.50
2017,05,25,04,04,10.50
2017,05,25,04,05,10.40
2017,05,25,04,06,10.40
2017,05,25,04,07,10.40
2017,05,25,04,08,10.40
2017,05,25,04,09,10.40
2017,05,25,04,10,10.40
2017,05,25,04,11,10.40
2017,05,25,04,12,10.40
2017,05,25,04,13,10.40
2017,05,25,04,14,10.40
2017,05,25,04,15,10.40
2017,05,25,04,16,10.40
2017,05,25,04,17,10.40
2017,05,25,04,18,10.40
2017,05,25,04,19,10.40
2017,05,25,04,20,10.40
2017,05,25,04,21,10.40
2017,05,25,04,22,10.40
2017,05,25,04,23,10.40
2017,05,25,04,24,10.40
2017,05,25,04,25,10.40
2017,05,25,04,26,10.40
2017,05,25,04,27,10.40
2017,05,25,04,28,10.40
2017,05,25,04,29,10.40
2017,05,25,04,30,10.40
2017,05,25,04,31,10.40
2017,05,25,04,32,10.40
2017,05,25,04,33,10.40
2017,05,25,04,34,10.40
2017,05,25,04,35,10.40
2017,05,25,04,36,10.40
2017,05,25,04,37,10.40
2017,05,25,04,38,10.40
2017,05,25,04,39,10.40
2017,05,25,04,40,10.40
2017,05,25,04,41,10.40
2017,05,25,04,42,10.40
2017,05,25,04,43,10.40
2017,05,25,04,44,10.40
2017,05,25,04,45,10.40
2017,05,25,04,46,10.40
2017,05,25,04,47,10.40
2017,05,25,04,48,10.40
2017,05,25,04,49,10.40
2017,05,25,04,50,10.40
2017,05,25,04,51,10.40
2017,05,25,04,52,10.40
2017,05,25,04,53,10.30
2017,05,25,04,54,10.30
2017,05,25,04,55,10.30
2017,05,25,04,56,10.30
2017,05,25,04,57,10.30
2017,05,25,04,58,10.30
2017,05,25,04,59,10.30
2017,05,25,05,00,10.30
2017,05,25,05,01,10.30
2017,05,25,05,02,10.30
2017,05,25,05,03,10.30
2017,05,25,05,04,10.30
2017,05,25,05,05,10.30
2017,05,25,05,06,10.40
2017,05,25,05,07,10.40
2017,05,25,05,08,10.40
2017,05,25,05,09,10.40
2017,05,25,05,10,10.40
2017,05,25,05,11,10.40
2017,05,25,05,12,10.40
2017,05,25,05,13,10.40
2017,05,25,05,14,10.40
2017,05,25,05,15,10.30
2017,05,25,05,16,10.30
2017,05,25,05,17,10.40
2017,05,25,05,18,10.40
2017,05,25,05,19,10.30
2017,05,25,05,20,10.30
2017,05,25,05,21,10.30
2017,05,25,05,22,10.30
2017,05,25,05,23,10.30
2017,05,25,05,24,10.30
2017,05,25,05,25,10.30
2017,05,25,05,26,10.40
2017,05,25,05,27,10.40
2017,05,25,05,28,10.40
2017,05,25,05,29,10.40
2017,05,25,05,30,10.40
2017,05,25,05,31,10.40
2017,05,25,05,32,10.40
2017,05,25,05,33,10.50
2017,05,25,05,34,10.50
2017,05,25,05,35,10.50
2017,05,25,05,36,10.50
2017,05,25,05,37,10.50
2017,05,25,05,38,10.50
2017,05,25,05,39,10.50
2017,05,25,05,40,10.50
2017,05,25,05,41,10.50
2017,05,25,05,42,10.50
2017,05,25,05,43,10.50
2017,05,25,05,44,10.50
2017,05,25,05,45,10.50
2017,05,25,05,46,10.50
2017,05,25,05,47,10.50
2017,05,25,05,48,10.50
2017,05,25,05,49,10.50
2017,05,25,05,50,10.50
2017,05,25,05,51,10.40
2017,05,25,05,52,10.40
2017,05,25,05,53,10.40
2017,05,25,05,54,10.40
2017,05,25,05,55,10.40
2017,05,25,05,56,10.40
2017,05,25,05,57,10.40
2017,05,25,05,58,10.40
2017,05,25,05,59,10.40
2017,05,25,06,00,10.40
2017,05,25,06,01,10.40
2017,05,25,06,02,10.40
2017,05,25,06,03,10.40
2017,05,25,06,04,10.40
2017,05,25,06,05,10.40
2017,05,25,06,06,10.40
2017,05,25,06,07,10.40
2017,05,25,06,08,10.50
2017,05,25,06,09,10.50
2017,05,25,06,10,10.50
2017,05,25,06,11,10.50
2017,05,25,06,12,10.50
2017,05,25,06,13,10.60
2017,05,25,06,14,10.60
2017,05,25,06,15,10.60
2017,05,25,06,16,10.60
2017,05,25,06,17,10.60
2017,05,25,06,18,10.60
2017,05,25,06,19,10.70
2017,05,25,06,20,10.70
2017,05,25,06,21,10.70
2017,05,25,06,22,10.80
2017,05,25,06,23,10.80
2017,05,25,06,24,10.80
2017,05,25,06,25,10.90
2017,05,25,06,26,10.90
2017,05,25,06,27,11.00
2017,05,25,06,28,11.00
2017,05,25,06,29,11.10
2017,05,25,06,30,11.10
2017,05,25,06,31,11.10
2017,05,25,06,32,11.20
2017,05,25,06,33,11.20
2017,05,25,06,34,11.20
2017,05,25,06,35,11.20
2017,05,25,06,36,11.20
2017,05,25,06,37,11.30
2017,05,25,06,38,11.30
2017,05,25,06,39,11.30
2017,05,25,06,40,11.30
2017,05,25,06,41,11.30
2017,05,25,06,42,11.30
2017,05,25,06,43,11.40
2017,05,25,06,44,11.40
2017,05,25,06,45,11.40
2017,05,25,06,46,11.40
2017,05,25,06,47,11.50
2017,05,25,06,48,11.50
2017,05,25,06,49,11.50
2017,05,25,06,50,11.60
2017,05,25,06,51,11.60
2017,05,25,06,52,11.60
2017,05,25,06,53,11.60
2017,05,25,06,54,11.60
2017,05,25,06,55,11.70
2017,05,25,06,56,11.70
2017,05,25,06,57,11.70
2017,05,25,06,58,11.70
2017,05,25,06,59,11.70
2017,05,25,07,00,11.80
2017,05,25,07,01,11.80
2017,05,25,07,02,11.80
2017,05,25,07,03,11.80
2017,05,25,07,04,11.80
2017,05,25,07,05,11.80
2017,05,25,07,06,11.90
2017,05,25,07,07,11.90
2017,05,25,07,08,11.90
2017,05,25,07,09,11.90
2017,05,25,07,10,11.90
2017,05,25,07,11,11.90
2017,05,25,07,12,11.90
2017,05,25,07,13,11.90
2017,05,25,07,14,11.90
2017,05,25,07,15,12.00
2017,05,25,07,16,12.00
2017,05,25,07,17,12.00
2017,05,25,07,18,12.10
2017,05,25,07,19,12.10
2017,05,25,07,20,12.10
2017,05,25,07,21,12.10
2017,05,25,07,22,12.10
2017,05,25,07,23,12.10
2017,05,25,07,24,12.20
2017,05,25,07,25,12.20
2017,05,25,07,26,12.20
2017,05,25,07,27,12.20
2017,05,25,07,28,12.30
2017,05,25,07,29,12.30
2017,05,25,07,30,12.30
2017,05,25,07,31,12.30
2017,05,25,07,32,12.30
2017,05,25,07,33,12.40
2017,05,25,07,34,12.40
2017,05,25,07,35,12.40
2017,05,25,07,36,12.40
2017,05,25,07,37,12.40
2017,05,25,07,38,12.40
2017,05,25,07,39,12.40
2017,05,25,07,40,12.40
2017,05,25,07,41,12.30
2017,05,25,07,42,12.30
2017,05,25,07,43,12.40
2017,05,25,07,44,12.40
2017,05,25,07,45,12.40
2017,05,25,07,46,12.40
2017,05,25,07,47,12.50
2017,05,25,07,48,12.50
2017,05,25,07,49,12.50
2017,05,25,07,50,12.50
2017,05,25,07,51,12.60
2017,05,25,07,52,12.60
2017,05,25,07,53,12.60
2017,05,25,07,54,12.60
2017,05,25,07,55,12.60
2017,05,25,07,56,12.60
2017,05,25,07,57,12.60
2017,05,25,07,58,12.60
2017,05,25,07,59,12.60
2017,05,25,08,00,12.70
2017,05,25,08,01,12.70
2017,05,25,08,02,12.70
2017,05,25,08,03,12.70
2017,05,25,08,04,12.70
2017,05,25,08,05,12.70
2017,05,25,08,06,12.70
2017,05,25,08,07,12.80
2017,05,25,08,08,12.80
2017,05,25,08,09,12.80
2017,05,25,08,10,12.80
2017,05,25,08,11,12.80
2017,05,25,08,12,12.80
2017,05,25,08,13,12.80
2017,05,25,08,14,12.80
2017,05,25,08,15,12.80
2017,05,25,08,16,12.80
2017,05,25,08,17,12.80
2017,05,25,08,18,12.80
2017,05,25,08,19,12.80
2017,05,25,08,20,12.90
2017,05,25,08,21,12.90
2017,05,25,08,22,12.90
2017,05,25,08,23,12.90
2017,05,25,08,24,12.90
2017,05,25,08,25,12.90
2017,05,25,08,26,13.00
2017,05,25,08,27,13.00
2017,05,25,08,28,13.00
2017,05,25,08,29,13.10
2017,05,25,08,30,13.10
2017,05,25,08,31,13.20
2017,05,25,08,32,13.20
2017,05,25,08,33,13.20
2017,05,25,08,34,13.30
2017,05,25,08,35,13.30
2017,05,25,08,36,13.30
2017,05,25,08,37,13.30
2017,05,25,08,38,13.30
2017,05,25,08,39,13.30
2017,05,25,08,40,13.30
2017,05,25,08,41,13.40
2017,05,25,08,42,13.40
2017,05,25,08,43,13.40
2017,05,25,08,44,13.30
2017,05,25,08,45,13.30
2017,05,25,08,46,13.30
2017,05,25,08,47,13.30
2017,05,25,08,48,13.30
2017,05,25,08,49,13.30
2017,05,25,08,50,13.40
2017,05,25,08,51,13.40
2017,05,25,08,52,13.30
2017,05,25,08,53,13.20
2017,05,25,08,54,13.20
2017,05,25,08,55,13.10
2017,05,25,08,56,13.10
2017,05,25,08,57,13.10
2017,05,25,08,58,13.10
2017,05,25,08,59,13.20
2017,05,25,09,00,13.20
2017,05,25,09,01,13.20
2017,05,25,09,02,13.30
2017,05,25,09,03,13.30
2017,05,25,09,04,13.30
2017,05,25,09,05,13.40
2017,05,25,09,06,13.40
2017,05,25,09,07,13.50
2017,05,25,09,08,13.50
2017,05,25,09,09,13.60
2017,05,25,09,10,13.60
2017,05,25,09,11,13.60
2017,05,25,09,12,13.50
2017,05,25,09,13,13.50
2017,05,25,09,14,13.50
2017,05,25,09,15,13.50
2017,05,25,09,16,13.40
2017,05,25,09,17,13.40
2017,05,25,09,18,13.50
2017,05,25,09,19,13.50
2017,05,25,09,20,13.50
2017,05,25,09,21,13.50
2017,05,25,09,22,13.40
2017,05,25,09,23,13.40
2017,05,25,09,24,13.30
2017,05,25,09,25,13.30
2017,05,25,09,26,13.30
2017,05,25,09,27,13.30
2017,05,25,09,28,13.30
2017,05,25,09,29,13.20
2017,05,25,09,30,13.20
2017,05,25,09,31,13.20
2017,05,25,09,32,13.10
2017,05,25,09,33,13.10
2017,05,25,09,34,13.10
2017,05,25,09,35,13.20
2017,05,25,09,36,13.20
2017,05,25,09,37,13.20
2017,05,25,09,38,13.20
2017,05,25,09,39,13.20
2017,05,25,09,40,13.30
2017,05,25,09,41,13.40
2017,05,25,09,42,13.50
2017,05,25,09,43,13.60
2017,05,25,09,44,13.60
2017,05,25,09,45,13.60
2017,05,25,09,46,13.60
2017,05,25,09,47,13.50
2017,05,25,09,48,13.50
2017,05,25,09,49,13.50
2017,05,25,09,50,13.40
2017,05,25,09,51,13.50
2017,05,25,09,52,13.50
2017,05,25,09,53,13.60
2017,05,25,09,54,13.70
2017,05,25,09,55,13.70
2017,05,25,09,56,13.80
2017,05,25,09,57,13.90
2017,05,25,09,58,14.00
2017,05,25,09,59,14.10
2017,05,25,10,00,14.20
2017,05,25,10,01,14.20
2017,05,25,10,02,14.20
2017,05,25,10,03,14.20
2017,05,25,10,04,14.20
2017,05,25,10,05,14.20
2017,05,25,10,06,14.20
2017,05,25,10,07,14.20
2017,05,25,10,08,14.20
2017,05,25,10,09,14.20
2017,05,25,10,10,14.20
2017,05,25,10,11,14.20
2017,05,25,10,12,14.20
2017,05,25,10,13,14.20
2017,05,25,10,14,14.20
2017,05,25,10,15,14.20
2017,05,25,10,16,14.20
2017,05,25,10,17,14.20
2017,05,25,10,18,14.20
2017,05,25,10,19,14.30
2017,05,25,10,20,14.30
2017,05,25,10,21,14.30
2017,05,25,10,22,14.40
2017,05,25,10,23,14.40
2017,05,25,10,24,14.50
2017,05,25,10,25,14.50
2017,05,25,10,26,14.50
2017,05,25,10,27,14.50
2017,05,25,10,28,14.40
2017,05,25,10,29,14.40
2017,05,25,10,30,14.30
2017,05,25,10,31,14.30
2017,05,25,10,32,14.40
2017,05,25,10,33,14.40
2017,05,25,10,34,14.50
2017,05,25,10,35,14.50
2017,05,25,10,36,14.50
2017,05,25,10,37,14.50
2017,05,25,10,38,14.50
2017,05,25,10,39,14.50
2017,05,25,10,40,14.60
2017,05,25,10,41,14.60
2017,05,25,10,42,14.60
2017,05,25,10,43,14.70
2017,05,25,10,44,14.70
2017,05,25,10,45,14.70
2017,05,25,10,46,14.80
2017,05,25,10,47,14.90
2017,05,25,10,48,14.90
2017,05,25,10,49,15.00
2017,05,25,10,50,14.90
2017,05,25,10,51,14.80
2017,05,25,10,52,14.80
2017,05,25,10,53,14.80
2017,05,25,10,54,14.80
2017,05,25,10,55,14.80
2017,05,25,10,56,14.90
2017,05,25,10,57,14.90
2017,05,25,10,58,15.00
2017,05,25,10,59,15.00
2017,05,25,11,00,15.00
2017,05,25,11,01,15.00
2017,05,25,11,02,15.00
2017,05,25,11,03,15.00
2017,05,25,11,04,15.00
2017,05,25,11,05,15.00
2017,05,25,11,06,15.00
2017,05,25,11,07,15.10
2017,05,25,11,08,15.30
2017,05,25,11,09,15.30
2017,05,25,11,10,15.40
2017,05,25,11,11,15.50
2017,05,25,11,12,15.50
2017,05,25,11,13,15.60
2017,05,25,11,14,15.60
2017,05,25,11,15,15.60
2017,05,25,11,16,15.70
2017,05,25,11,17,15.70
2017,05,25,11,18,15.80
2017,05,25,11,19,15.80
2017,05,25,11,20,15.80
2017,05,25,11,21,15.80
2017,05,25,11,22,15.80
2017,05,25,11,23,15.80
2017,05,25,11,24,15.90
2017,05,25,11,25,15.90
2017,05,25,11,26,15.90
2017,05,25,11,27,15.80
2017,05,25,11,28,15.80
2017,05,25,11,29,15.80
2017,05,25,11,30,15.90
2017,05,25,11,31,16.00
2017,05,25,11,32,16.00
2017,05,25,11,33,16.00
2017,05,25,11,34,15.90
2017,05,25,11,35,15.80
2017,05,25,11,36,15.70
2017,05,25,11,37,15.60
2017,05,25,11,38,15.60
2017,05,25,11,39,15.60
2017,05,25,11,40,15.50
2017,05,25,11,41,15.50
2017,05,25,11,42,15.60
2017,05,25,11,43,15.70
2017,05,25,11,44,15.70
2017,05,25,11,45,15.80
2017,05,25,11,46,15.80
2017,05,25,11,47,15.70
2017,05,25,11,48,15.70
2017,05,25,11,49,15.80
2017,05,25,11,50,15.80
2017,05,25,11,51,15.80
2017,05,25,11,52,15.70
2017,05,25,11,53,15.80
2017,05,25,11,54,15.80
2017,05,25,11,55,15.80
2017,05,25,11,56,15.70
2017,05,25,11,57,15.60
2017,05,25,11,58,15.60
2017,05,25,11,59,15.50
2017,05,25,12,00,15.50
2017,05,25,12,01,15.50
2017,05,25,12,02,15.50
2017,05,25,12,03,15.50
2017,05,25,12,04,15.60
2017,05,25,12,05,15.70
2017,05,25,12,06,15.60
2017,05,25,12,07,15.60
2017,05,25,12,08,15.50
2017,05,25,12,09,15.50
2017,05,25,12,10,15.40
2017,05,25,12,11,15.40
2017,05,25,12,12,15.40
2017,05,25,12,13,15.40
2017,05,25,12,14,15.50
2017,05,25,12,15,15.60
2017,05,25,12,16,15.60
2017,05,25,12,17,15.60
2017,05,25,12,18,15.70
2017,05,25,12,19,15.80
2017,05,25,12,20,15.80
2017,05,25,12,21,15.80
2017,05,25,12,22,15.80
2017,05,25,12,23,15.80
2017,05,25,12,24,15.90
2017,05,25,12,25,16.00
2017,05,25,12,26,16.10
2017,05,25,12,27,16.10
2017,05,25,12,28,16.10
2017,05,25,12,29,16.10
2017,05,25,12,30,16.10
2017,05,25,12,31,16.20
2017,05,25,12,32,16.20
2017,05,25,12,33,16.20
2017,05,25,12,34,16.20
2017,05,25,12,35,16.30
2017,05,25,12,36,16.30
2017,05,25,12,37,16.30
2017,05,25,12,38,16.30
2017,05,25,12,39,16.30
2017,05,25,12,40,16.30
2017,05,25,12,41,16.40
2017,05,25,12,42,16.40
2017,05,25,12,43,16.50
2017,05,25,12,44,16.50
2017,05,25,12,45,16.50
2017,05,25,12,46,16.40
2017,05,25,12,47,16.40
2017,05,25,12,48,16.30
2017,05,25,12,49,16.20
2017,05,25,12,50,16.30
2017,05,25,12,51,16.30
2017,05,25,12,52,16.40
2017,05,25,12,53,16.40
2017,05,25,12,54,16.40
2017,05,25,12,55,16.40
2017,05,25,12,56,16.30
2017,05,25,12,57,16.30
2017,05,25,12,58,16.40
2017,05,25,12,59,16.50
2017,05,25,13,00,16.60
2017,05,25,13,01,16.70
2017,05,25,13,02,16.70
2017,05,25,13,03,16.80
2017,05,25,13,04,16.90
2017,05,25,13,05,16.90
2017,05,25,13,06,16.80
2017,05,25,13,07,16.80
2017,05,25,13,08,16.80
2017,05,25,13,09,16.80
2017,05,25,13,10,16.80
2017,05,25,13,11,16.80
2017,05,25,13,12,16.90
2017,05,25,13,13,16.90
2017,05,25,13,14,16.90
2017,05,25,13,15,16.90
2017,05,25,13,16,16.90
2017,05,25,13,17,16.90
2017,05,25,13,18,17.00
2017,05,25,13,19,17.00
2017,05,25,13,20,17.10
2017,05,25,13,21,17.10
2017,05,25,13,22,17.20
2017,05,25,13,23,17.20
2017,05,25,13,24,17.30
2017,05,25,13,25,17.30
2017,05,25,13,26,17.20
2017,05,25,13,27,17.20
2017,05,25,13,28,17.20
2017,05,25,13,29,17.20
2017,05,25,13,30,17.20
2017,05,25,13,31,17.20
2017,05,25,13,32,17.20
2017,05,25,13,33,17.20
2017,05,25,13,34,17.10
2017,05,25,13,35,17.10
2017,05,25,13,36,17.10
2017,05,25,13,37,17.10
2017,05,25,13,38,17.10
2017,05,25,13,39,17.10
2017,05,25,13,40,17.10
2017,05,25,13,41,17.20
2017,05,25,13,42,17.30
2017,05,25,13,43,17.40
2017,05,25,13,44,17.40
2017,05,25,13,45,17.40
2017,05,25,13,46,17.40
2017,05,25,13,47,17.30
2017,05,25,13,48,17.30
2017,05,25,13,49,17.30
2017,05,25,13,50,17.30
2017,05,25,13,51,17.40
2017,05,25,13,52,17.50
2017,05,25,13,53,17.60
2017,05,25,13,54,17.70
2017,05,25,13,55,17.70
2017,05,25,13,56,17.80
2017,05,25,13,57,17.80
2017,05,25,13,58,17.90
2017,05,25,13,59,17.90
2017,05,25,14,00,17.90
2017,05,25,14,01,18.00
2017,05,25,14,02,18.00
2017,05,25,14,03,18.10
2017,05,25,14,04,18.10
2017,05,25,14,05,18.00
2017,05,25,14,06,18.10
2017,05,25,14,07,18.10
2017,05,25,14,08,18.10
2017,05,25,14,09,18.00
2017,05,25,14,10,18.00
2017,05,25,14,11,18.00
2017,05,25,14,12,18.00
2017,05,25,14,13,18.00
2017,05,25,14,14,18.00
2017,05,25,14,15,18.00
2017,05,25,14,16,18.00
2017,05,25,14,17,17.90
2017,05,25,14,18,18.00
2017,05,25,14,19,18.00
2017,05,25,14,20,18.10
2017,05,25,14,21,18.10
2017,05,25,14,22,18.20
2017,05,25,14,23,18.10
2017,05,25,14,24,18.10
2017,05,25,14,25,18.10
2017,05,25,14,26,18.10
2017,05,25,14,27,18.10
2017,05,25,14,28,18.10
2017,05,25,14,29,18.10
2017,05,25,14,30,18.20
2017,05,25,14,31,18.10
2017,05,25,14,32,18.10
2017,05,25,14,33,18.20
2017,05,25,14,34,18.20
2017,05,25,14,35,18.20
2017,05,25,14,36,18.30
2017,05,25,14,37,18.20
2017,05,25,14,38,18.10
2017,05,25,14,39,18.10
2017,05,25,14,40,18.10
2017,05,25,14,41,18.10
2017,05,25,14,42,18.10
2017,05,25,14,43,18.20
2017,05,25,14,44,18.30
2017,05,25,14,45,18.30
2017,05,25,14,46,18.40
2017,05,25,14,47,18.50
2017,05,25,14,48,18.50
2017,05,25,14,49,18.60
2017,05,25,14,50,18.60
2017,05,25,14,51,18.60
2017,05,25,14,52,18.60
2017,05,25,14,53,18.60
2017,05,25,14,54,18.70
2017,05,25,14,55,18.80
2017,05,25,14,56,18.70
2017,05,25,14,57,18.70
2017,05,25,14,58,18.70
2017,05,25,14,59,18.70
2017,05,25,15,00,18.80
2017,05,25,15,01,18.80
2017,05,25,15,02,18.80
2017,05,25,15,03,18.80
2017,05,25,15,04,18.80
2017,05,25,15,05,18.80
2017,05,25,15,06,18.80
2017,05,25,15,07,18.80
2017,05,25,15,08,18.80
2017,05,25,15,09,18.80
2017,05,25,15,10,18.70
2017,05,25,15,11,18.70
2017,05,25,15,12,18.70
2017,05,25,15,13,18.70
2017,05,25,15,14,18.70
2017,05,25,15,15,18.80
2017,05,25,15,16,18.80
2017,05,25,15,17,18.70
2017,05,25,15,18,18.70
2017,05,25,15,19,18.60
2017,05,25,15,20,18.60
2017,05,25,15,21,18.60
2017,05,25,15,22,18.60
2017,05,25,15,23,18.60
2017,05,25,15,24,18.60
2017,05,25,15,25,18.60
2017,05,25,15,26,18.50
2017,05,25,15,27,18.50
2017,05,25,15,28,18.50
2017,05,25,15,29,18.50
2017,05,25,15,30,18.50
2017,05,25,15,31,18.60
2017,05,25,15,32,18.60
2017,05,25,15,33,18.70
2017,05,25,15,34,18.70
2017,05,25,15,35,18.80
2017,05,25,15,36,18.80
2017,05,25,15,37,18.90
2017,05,25,15,38,18.90
2017,05,25,15,39,19.00
2017,05,25,15,40,19.00
2017,05,25,15,41,19.10
2017,05,25,15,42,19.10
2017,05,25,15,43,19.10
2017,05,25,15,44,19.20
2017,05,25,15,45,19.20
2017,05,25,15,46,19.30
2017,05,25,15,47,19.30
2017,05,25,15,48,19.40
2017,05,25,15,49,19.40
2017,05,25,15,50,19.40
2017,05,25,15,51,19.40
2017,05,25,15,52,19.30
2017,05,25,15,53,19.30
2017,05,25,15,54,19.20
2017,05,25,15,55,19.10
2017,05,25,15,56,19.10
2017,05,25,15,57,19.10
2017,05,25,15,58,19.10
2017,05,25,15,59,19.20
2017,05,25,16,00,19.20
2017,05,25,16,01,19.20
2017,05,25,16,02,19.20
2017,05,25,16,03,19.20
2017,05,25,16,04,19.20
2017,05,25,16,05,19.30
2017,05,25,16,06,19.30
2017,05,25,16,07,19.30
2017,05,25,16,08,19.30
2017,05,25,16,09,19.40
2017,05,25,16,10,19.40
2017,05,25,16,11,19.40
2017,05,25,16,12,19.50
2017,05,25,16,13,19.50
2017,05,25,16,14,19.60
2017,05,25,16,15,19.60
2017,05,25,16,16,19.60
2017,05,25,16,17,19.60
2017,05,25,16,18,19.50
2017,05,25,16,19,19.50
2017,05,25,16,20,19.50
2017,05,25,16,21,19.40
2017,05,25,16,22,19.40
2017,05,25,16,23,19.40
2017,05,25,16,24,19.40
2017,05,25,16,25,19.40
2017,05,25,16,26,19.40
2017,05,25,16,27,19.40
2017,05,25,16,28,19.40
2017,05,25,16,29,19.40
2017,05,25,16,30,19.40
2017,05,25,16,31,19.40
2017,05,25,16,32,19.40
2017,05,25,16,33,19.40
2017,05,25,16,34,19.40
2017,05,25,16,35,19.30
2017,05,25,16,36,19.30
2017,05,25,16,37,19.30
2017,05,25,16,38,19.30
2017,05,25,16,39,19.30
2017,05,25,16,40,19.30
2017,05,25,16,41,19.30
2017,05,25,16,42,19.30
2017,05,25,16,43,19.30
2017,05,25,16,44,19.30
2017,05,25,16,45,19.30
2017,05,25,16,46,19.40
2017,05,25,16,47,19.40
2017,05,25,16,48,19.40
2017,05,25,16,49,19.40
2017,05,25,16,50,19.40
2017,05,25,16,51,19.40
2017,05,25,16,52,19.40
2017,05,25,16,53,19.60
2017,05,25,16,54,19.70
2017,05,25,16,55,19.70
2017,05,25,16,56,19.70
2017,05,25,16,57,19.70
2017,05,25,16,58,19.70
2017,05,25,16,59,19.70
2017,05,25,17,00,19.70
2017,05,25,17,01,19.70
2017,05,25,17,02,19.70
2017,05,25,17,03,19.60
2017,05,25,17,04,19.60
2017,05,25,17,05,19.60
2017,05,25,17,06,19.60
2017,05,25,17,07,19.60
2017,05,25,17,08,19.60
2017,05,25,17,09,19.60
2017,05,25,17,10,19.60
2017,05,25,17,11,19.60
2017,05,25,17,12,19.60
2017,05,25,17,13,19.70
2017,05,25,17,14,19.70
2017,05,25,17,15,19.80
2017,05,25,17,16,19.80
2017,05,25,17,17,19.80
2017,05,25,17,18,19.80
2017,05,25,17,19,19.80